Location: Cheching
(60.0667°N, 164.2167°W)
Time: 14:18:04
(UTC+00:00)

STRAND 1 - Pass Details

Date: 26 January 2021
Orbit: 768 x 780 km, 98.4° (Epoch: 04 March)

Event Time Altitude Azimuth Distance (km) Brightness Sun altitude
Rises 14:36:56 0° 99° (E) 3,253 ? -34.6°
Reaches altitude 10° 14:39:56 10° 80° (E) 2,331 ? -34.3°
Maximum altitude 14:43:13 18° 40° (NE) 1,869 ? -33.9°
Drops below altitude 10° 14:46:31 10° 0° (N) 2,342 ? -33.5°
Enters shadow 14:48:40 - 346° (NNW) 2,982 ? -33.3°
